Home   Weather   France   Amiens   Past weeks
Flag for France

Past Weather in Amiens, Somme, France — Yesterday and Last 2 Weeks

Currently: 66 °F. More clouds than sun. (Weather station: Beauvais Airport, France). See more current weather

Past Weather in Amiens — Graph

°F

Amiens Temperature Yesterday

Maximum temperature yesterday: 77 °F (at 4:00 pm)
Minimum temperature yesterday: 54 °F (at 6:30 am)
Average temperature yesterday: 66 °F

High & Low Weather Summary for the Past Weeks

 TemperatureHumidityPressure
High90 °F (Jul 19, 3:00 pm)100% (Jul 10, 6:30 am)30.18 "Hg (Jul 10, 6:30 am)
Low48 °F (Jul 14, 3:30 am)33% (Jul 19, 2:30 pm)29.68 "Hg (Jul 20, 7:30 pm)
Average66 °F75%29.98 "Hg
* Reported Jul 8 6:00 pm — Jul 23 6:00 pm, Amiens. Weather by CustomWeather, © 2024

Note: Actual official high and low records may vary slightly from our data, if they occured in-between our weather recording intervals... More about our weather records

Amiens Weather History for the Previous 24 Hours

Scroll right to see more
 ConditionsComfort  
Time TempWeatherWind HumidityBarometerVisibility
6:00 pm
Tue, Jul 23
68 °FOvercast.12 mph64%30.15 "HgN/A
5:30 pm66 °FOvercast.13 mph68%30.15 "HgN/A
5:00 pm68 °FMostly cloudy.13 mph64%30.15 "HgN/A
4:00 pm66 °FMostly cloudy.14 mph68%30.15 "HgN/A
3:30 pm68 °FOvercast.14 mph69%30.15 "HgN/A
2:30 pm68 °FOvercast.14 mph60%30.12 "HgN/A
2:00 pm68 °FMostly cloudy.12 mph60%30.12 "HgN/A
1:30 pm68 °FMostly cloudy.15 mph64%30.12 "HgN/A
1:00 pm68 °FPartly sunny.21 mph64%30.12 "HgN/A
12:30 pm68 °FBroken clouds.17 mph69%30.09 "HgN/A
12:00 pm68 °FMostly cloudy.16 mph73%30.09 "HgN/A
11:30 am70 °FPartly sunny.16 mph73%30.09 "HgN/A
11:00 am68 °FPartly sunny.15 mph73%30.09 "HgN/A
10:30 am66 °FPartly sunny.16 mph83%30.09 "HgN/A
10:00 am66 °FPartly sunny.12 mph88%30.09 "HgN/A
9:00 am64 °FPartly sunny.12 mph94%30.07 "Hg4 mi
8:30 am64 °FMostly cloudy.9 mph94%30.07 "Hg4 mi
8:00 am64 °FMostly cloudy.9 mph100%30.07 "Hg5 mi
7:30 am64 °FDrizzle. More clouds than sun.10 mph100%30.07 "HgN/A
7:00 am64 °FRain. Fog.8 mph100%30.07 "Hg1 mi
6:30 am64 °FDrizzle. Fog.9 mph100%30.07 "Hg1 mi
6:00 am64 °FLow clouds.8 mph100%30.07 "HgN/A
5:30 am64 °FLow clouds.9 mph100%30.07 "HgN/A
5:00 am64 °FLight rain. Mostly cloudy.8 mph100%30.07 "Hg5 mi
4:30 am64 °FLight rain. Fog.7 mph94%30.07 "Hg3 mi
4:00 am66 °FMostly cloudy.8 mph88%30.07 "HgN/A
3:30 am66 °FPassing clouds.7 mph88%30.07 "HgN/A
3:00 am66 °FPartly cloudy.8 mph88%30.07 "HgN/A
2:30 am66 °FMostly cloudy.8 mph88%30.09 "HgN/A
2:00 am66 °FPassing clouds.8 mph88%30.09 "HgN/A
1:30 am66 °FLight rain. Passing clouds.8 mph88%30.09 "HgN/A
1:00 am66 °FClear.9 mph83%30.09 "Hg10 mi
12:30 am66 °FPartly cloudy.8 mph83%30.09 "HgN/A
12:00 am68 °FClear.9 mph78%30.09 "Hg10 mi
11:30 pm
Mon, Jul 22
68 °FPassing clouds.8 mph78%30.09 "HgN/A
11:00 pm68 °FClear.7 mph78%30.09 "Hg10 mi
10:30 pm70 °FPartly cloudy.8 mph73%30.09 "HgN/A
10:00 pm70 °FOvercast.8 mph73%30.09 "HgN/A
9:00 pm72 °FMore clouds than sun.9 mph69%30.09 "HgN/A
8:30 pm72 °FMostly cloudy.12 mph69%30.09 "HgN/A
8:00 pm73 °FBroken clouds.12 mph65%30.09 "HgN/A
7:30 pm73 °FPartly sunny.12 mph65%30.07 "HgN/A
7:00 pm75 °FBroken clouds.12 mph57%30.07 "HgN/A
Weather by CustomWeather, © 2024

See weather overview